IU2VCR-15 Weather Reports


Display with metric or nautical units.
time (UTC)temp
F
wind
direction
speed
MPH
gust
MPH
rain 1hr
in
rain 24hr
in
rain mn
in
humidity
%
barometer
mb
20260905020215 70 65 0.0 1.0 0.00 0.00 0.00 65 1016.7
20260905015214 71 41 0.0 0.0 0.00 0.00 0.00 64 1016.8
20260905014210 71 18 2.0 3.0 0.00 0.00 0.00 63 1016.9
20260905012202 71 37 1.0 1.0 0.00 0.00 0.00 61 1016.8
20260905011200 71 358 0.0 1.0 0.00 0.00 0.00 62 1016.7
20260905010158 72 8 0.0 1.0 0.00 0.00 0.00 60 1016.7
20260905005152 72 358 1.0 1.0 0.00 0.00 0.00 63 1016.6
20260905004146 72 359 1.0 1.0 0.00 0.00 0.00 62 1016.9
20260905003142 72 60 1.0 1.0 0.00 0.00 0.00 62 1016.9
20260905002139 72 26 1.0 2.0 0.00 0.00 0.00 64 1017.0
20260905001136 72 38 1.0 1.0 0.00 0.00 0.00 64 1017.0
20260905000130 73 35 2.0 2.0 0.00 0.00 0.00 65 1017.5
20260904235125 73 20 1.0 2.0 0.00 0.00 0.00 64 1017.4
20260904234122 73 10 1.0 2.0 0.00 0.00 0.00 62 1017.4
20260904233117 73 17 2.0 2.0 0.00 0.00 0.00 63 1017.5
20260904232113 73 15 0.0 1.0 0.00 0.00 0.00 63 1017.5
20260904231108 73 25 0.0 1.0 0.00 0.00 0.00 63 1017.4
20260904230107 73 56 0.0 0.0 0.00 0.00 0.00 62 1017.5
20260904225101 74 344 1.0 1.0 0.00 0.00 0.00 60 1017.6
20260904224059 75 48 0.0 0.0 0.00 0.00 0.00 61 1017.6
20260904223058 75 24 1.0 1.0 0.00 0.00 0.00 60 1017.4
20260904222053 75 352 0.0 1.0 0.00 0.00 0.00 60 1017.6
20260904221048 75 166 0.0 0.0 0.00 0.00 0.00 60 1017.7
20260904220043 76 340 1.0 1.0 0.00 0.00 0.00 59 1017.7
20260904215042 76 34 0.0 1.0 0.00 0.00 0.00 56 1017.8
20260904214040 77 18 0.0 1.0 0.00 0.00 0.00 55 1017.9
20260904213035 78 15 0.0 1.0 0.00 0.00 0.00 52 1017.6
20260904212030 78 359 2.0 2.0 0.00 0.00 0.00 50 1018.0
20260904211030 78 29 2.0 2.0 0.00 0.00 0.00 48 1017.9
20260904210025 79 24 1.0 2.0 0.00 0.00 0.00 47 1017.7
20260904205023 79 21 1.0 2.0 0.00 0.00 0.00 46 1017.8
20260904204017 80 353 1.0 1.0 0.00 0.00 0.00 43 1017.9
20260904203013 79 0 1.0 2.0 0.00 0.00 0.00 44 1018.1
20260904202010 80 15 1.0 2.0 0.00 0.00 0.00 46 1017.9
20260904201007 80 11 1.0 3.0 0.00 0.00 0.00 43 1017.9
20260904200003 80 0 1.0 2.0 0.00 0.00 0.00 46 1017.9
20260904195000 80 15 2.0 2.0 0.00 0.00 0.00 49 1017.9
20260904193956 80 6 1.0 2.0 0.00 0.00 0.00 47 1017.7
20260904192950 81 2 1.0 2.0 0.00 0.00 0.00 52 1017.8
20260904191945 81 12 2.0 2.0 0.00 0.00 0.00 55 1017.9
20260904190943 82 16 3.0 3.0 0.00 0.00 0.00 57 1017.6
20260904185940 82 351 1.0 2.0 0.00 0.00 0.00 54 1017.7
20260904184935 83 8 2.0 2.0 0.00 0.00 0.00 52 1017.6
20260904183933 84 11 2.0 2.0 0.00 0.00 0.00 50 1017.4
20260904182927 85 18 2.0 2.0 0.00 0.00 0.00 49 1017.4
20260904181922 85 9 2.0 2.0 0.00 0.00 0.00 48 1017.3
20260904180918 86 20 2.0 2.0 0.00 0.00 0.00 46 1017.5
20260904175914 87 12 2.0 2.0 0.00 0.00 0.00 43 1017.3
20260904174908 88 21 2.0 2.0 0.00 0.00 0.00 41 1017.2
20260904173905 89 22 2.0 2.0 0.00 0.00 0.00 38 1017.0
20260904172900 90 16 2.0 3.0 0.00 0.00 0.00 36 1016.9
20260904171854 91 8 1.0 2.0 0.00 0.00 0.00 34 1016.8
20260904170850 92 7 1.0 2.0 0.00 0.00 0.00 33 1017.0
20260904165847 93 16 2.0 2.0 0.00 0.00 0.00 33 1016.8
20260904164842 93 57 0.0 1.0 0.00 0.00 0.00 32 1017.0
20260904163836 93 9 2.0 2.0 0.00 0.00 0.00 33 1016.9
20260904162830 93 12 3.0 3.0 0.00 0.00 0.00 33 1017.0
20260904161827 94 16 2.0 3.0 0.00 0.00 0.00 32 1017.2
20260904160823 95 15 1.0 2.0 0.00 0.00 0.00 31 1016.8
20260904155822 95 22 4.0 4.0 0.00 0.00 0.00 31 1017.0
20260904154818 95 1 2.0 3.0 0.00 0.00 0.00 32 1017.1
20260904153815 94 2 2.0 2.0 0.00 0.00 0.00 32 1017.4
20260904152810 96 7 2.0 3.0 0.00 0.00 0.00 31 1017.3
20260904151805 94 2 1.0 2.0 0.00 0.00 0.00 33 1017.2
20260904150801 96 4 2.0 2.0 0.00 0.00 0.00 32 1017.4
20260904145756 96 326 1.0 2.0 0.00 0.00 0.00 31 1017.7
20260904144753 96 9 2.0 2.0 0.00 0.00 0.00 33 1017.6
20260904143751 96 5 2.0 2.0 0.00 0.00 0.00 32 1017.7
20260904142750 93 356 2.0 2.0 0.00 0.00 0.00 35 1017.8
20260904141748 94 1 2.0 2.0 0.00 0.00 0.00 35 1017.7
20260904140745 96 8 4.0 5.0 0.00 0.00 0.00 34 1017.8
20260904135739 94 354 2.0 2.0 0.00 0.00 0.00 34 1017.8
20260904134733 94 31 2.0 2.0 0.00 0.00 0.00 34 1017.8
20260904133729 94 8 2.0 3.0 0.00 0.00 0.00 34 1017.9
20260904132723 94 41 1.0 2.0 0.00 0.00 0.00 34 1018.0
20260904131719 93 39 0.0 2.0 0.00 0.00 0.00 35 1018.2
20260904130714 93 53 1.0 2.0 0.00 0.00 0.00 36 1018.2
20260904125713 93 31 3.0 3.0 0.00 0.00 0.00 36 1018.2
20260904124710 94 355 0.0 2.0 0.00 0.00 0.00 35 1018.4
20260904123706 93 15 3.0 3.0 0.00 0.00 0.00 37 1018.5
20260904122705 92 41 1.0 2.0 0.00 0.00 0.00 36 1018.8
20260904121702 92 287 0.0 2.0 0.00 0.00 0.00 35 1018.8
20260904120657 90 79 0.0 2.0 0.00 0.00 0.00 38 1018.9
20260904115655 89 347 0.0 2.0 0.00 0.00 0.00 40 1018.9
20260904114650 89 131 1.0 2.0 0.00 0.00 0.00 40 1019.0
20260904113645 88 6 1.0 3.0 0.00 0.00 0.00 42 1019.1
20260904112642 87 300 1.0 1.0 0.00 0.00 0.00 42 1019.4
20260904111640 87 13 2.0 2.0 0.00 0.00 0.00 43 1019.4
20260904110638 86 0 2.0 2.0 0.00 0.00 0.00 46 1019.5
20260904105633 85 21 0.0 2.0 0.00 0.00 0.00 45 1019.5
20260904104629 85 9 2.0 2.0 0.00 0.00 0.00 46 1019.6
20260904103623 84 19 2.0 2.0 0.00 0.00 0.00 46 1019.9
20260904102617 84 17 2.0 2.0 0.00 0.00 0.00 47 1019.8
20260904101616 83 21 0.0 2.0 0.00 0.00 0.00 48 1020.1
20260904100609 83 21 1.0 2.0 0.00 0.00 0.00 48 1020.0
20260904095605 82 18 2.0 2.0 0.00 0.00 0.00 52 1020.0
20260904094603 82 24 2.0 2.0 0.00 0.00 0.00 49 1020.4
20260904093559 82 312 0.0 1.0 0.00 0.00 0.00 49 1020.5
20260904092555 82 34 0.0 1.0 0.00 0.00 0.00 49 1020.6
20260904091550 81 356 1.0 2.0 0.00 0.00 0.00 51 1020.5
20260904090547 81 351 1.0 2.0 0.00 0.00 0.00 51 1020.5
20260904085545 83 51 0.0 0.0 0.00 0.00 0.00 49 1020.2
20260904084542 83 20 0.0 1.0 0.00 0.00 0.00 48 1020.1
20260904083538 83 357 1.0 2.0 0.00 0.00 0.00 48 1020.4
20260904082533 84 25 0.0 1.0 0.00 0.00 0.00 46 1020.4
20260904081528 82 7 2.0 2.0 0.00 0.00 0.00 49 1020.2
20260904080525 81 11 1.0 2.0 0.00 0.00 0.00 49 1020.1
20260904075523 82 256 0.0 2.0 0.00 0.00 0.00 49 1020.2
20260904074519 81 4 1.0 2.0 0.00 0.00 0.00 50 1020.4
20260904073514 79 354 1.0 1.0 0.00 0.00 0.00 55 1019.9
20260904072512 76 51 0.0 1.0 0.00 0.00 0.00 59 1020.1
20260904071507 75 30 0.0 0.0 0.00 0.00 0.00 61 1020.1
20260904070504 74 67 0.0 1.0 0.00 0.00 0.00 63 1020.1
20260904065501 73 34 0.0 0.0 0.00 0.00 0.00 63 1020.0
20260904064457 72 11 0.0 1.0 0.00 0.00 0.00 65 1019.9
20260904063453 71 11 1.0 1.0 0.00 0.00 0.00 67 1019.9
20260904062448 71 40 1.0 1.0 0.00 0.00 0.00 68 1020.0
20260904061444 70 24 0.0 2.0 0.00 0.00 0.00 69 1020.2
20260904060439 69 12 1.0 1.0 0.00 0.00 0.00 70 1019.9
20260904055433 69 18 2.0 2.0 0.00 0.00 0.00 70 1019.9
20260904054430 68 36 1.0 2.0 0.00 0.00 0.00 72 1019.8
20260904053428 68 8 1.0 2.0 0.00 0.00 0.00 72 1019.9
20260904052426 68 6 1.0 2.0 0.00 0.00 0.00 72 1019.8
20260904051420 68 8 1.0 2.0 0.00 0.00 0.00 73 1019.6
20260904050418 68 4 3.0 3.0 0.00 0.00 0.00 71 1019.7
20260904045412 68 43 2.0 2.0 0.00 0.00 0.00 72 1019.5
20260904044409 68 5 1.0 1.0 0.00 0.00 0.00 75 1019.3
20260904043404 68 3 1.0 1.0 0.00 0.00 0.00 75 1019.3
20260904042359 68 29 1.0 2.0 0.00 0.00 0.00 73 1019.3
20260904041353 68 11 1.0 2.0 0.00 0.00 0.00 74 1019.3
20260904040347 68 22 2.0 2.0 0.00 0.00 0.00 73 1019.1
20260904035345 68 13 2.0 2.0 0.00 0.00 0.00 73 1019.3
20260904034339 68 12 0.0 0.0 0.00 0.00 0.00 73 1019.2
20260904033334 68 38 0.0 1.0 0.00 0.00 0.00 72 1019.2
20260904032334 69 26 2.0 2.0 0.00 0.00 0.00 71 1019.2
20260904031332 69 35 2.0 2.0 0.00 0.00 0.00 71 1019.1
20260904030330 69 34 0.0 2.0 0.00 0.00 0.00 72 1019.0
20260904025327 69 28 1.0 1.0 0.00 0.00 0.00 73 1019.1
20260904023319 69 32 1.0 1.0 0.00 0.00 0.00 73 1019.3
20260904022316 68 32 1.0 2.0 0.00 0.00 0.00 73 1019.3
20260904021312 69 68 0.0 1.0 0.00 0.00 0.00 72 1019.0